Lake Tuscaloosa Weather Center

Moon Phase Calendar



Lake Tuscaloosa Water Level
Online Cameras

 


      

Current Conditions in Mariners Cove
12/9/2022 8:14:18 PM

66°F
Feels Like 67
Clouds
Humidity
92%
Pressure
30.12"
Wind
3.4 mph (W)
Dew Point
64°F
UV Index
0/10 (Low)
Visibility
6 mi

Hourly Forecast

Date & Time Fri, Dec 9
8:00 PM
Fri, Dec 9
9:00 PM
Fri, Dec 9
10:00 PM
Fri, Dec 9
11:00 PM
Sat, Dec 10
12:00 AM
Sat, Dec 10
1:00 AM
Sat, Dec 10
2:00 AM
Sat, Dec 10
3:00 AM
Sat, Dec 10
4:00 AM
Sat, Dec 10
5:00 AM
Sat, Dec 10
6:00 AM
Sat, Dec 10
7:00 AM
Sat, Dec 10
8:00 AM
Sat, Dec 10
9:00 AM
Sat, Dec 10
10:00 AM
Sat, Dec 10
11:00 AM
Sat, Dec 10
12:00 PM
Sat, Dec 10
1:00 PM
Sat, Dec 10
2:00 PM
Sat, Dec 10
3:00 PM
Sat, Dec 10
4:00 PM
Sat, Dec 10
5:00 PM
Sat, Dec 10
6:00 PM
Sat, Dec 10
7:00 PM
Sat, Dec 10
8:00 PM
Sat, Dec 10
9:00 PM
Sat, Dec 10
10:00 PM
Sat, Dec 10
11:00 PM
Sun, Dec 11
12:00 AM
Sun, Dec 11
1:00 AM
Sun, Dec 11
2:00 AM
Sun, Dec 11
3:00 AM
Sun, Dec 11
4:00 AM
Sun, Dec 11
5:00 AM
Sun, Dec 11
6:00 AM
Sun, Dec 11
7:00 AM
Sun, Dec 11
8:00 AM
Sun, Dec 11
9:00 AM
Sun, Dec 11
10:00 AM
Sun, Dec 11
11:00 AM
Sun, Dec 11
12:00 PM
Sun, Dec 11
1:00 PM
Sun, Dec 11
2:00 PM
Sun, Dec 11
3:00 PM
Sun, Dec 11
4:00 PM
Sun, Dec 11
5:00 PM
Sun, Dec 11
6:00 PM
Sun, Dec 11
7:00 PM
Condition
Clouds

Clouds

Clouds

Clouds

Clouds

Clouds

Clouds

Clouds

Clouds

Clouds

Clouds

Clouds

Clouds

Clouds

Clouds

Clouds

Clouds

Clouds

Clouds

Clouds

Clouds

Rain

Clouds

Rain

Rain

Rain

Rain

Rain

Rain

Rain

Rain

Rain

Clouds

Clouds

Rain

Rain

Rain

Rain

Clouds

Clouds

Rain

Rain

Rain

Rain

Rain

Rain

Rain

Clouds
Temperature 66°F66°F64°F63°F61°F59°F59°F59°F58°F58°F57°F57°F60°F64°F67°F69°F70°F72°F72°F71°F69°F67°F67°F65°F65°F65°F64°F63°F62°F62°F62°F62°F63°F63°F62°F62°F62°F64°F65°F67°F66°F65°F64°F62°F61°F61°F61°F61°F
Feels Like 67°F66°F65°F63°F62°F59°F59°F59°F58°F58°F57°F57°F60°F63°F66°F69°F70°F72°F72°F71°F69°F68°F67°F66°F65°F65°F65°F64°F63°F62°F62°F63°F63°F63°F63°F62°F63°F64°F66°F67°F67°F65°F64°F63°F61°F61°F61°F61°F
Cloudiness 100%94%83%71%56%15%25%49%62%65%64%54%64%76%76%81%84%100%100%100%100%100%100%100%100%100%100%100%100%100%100%100%100%100%100%100%100%100%100%100%100%100%100%100%100%100%100%100%
Visibility 6 mi6 mi6 mi6 mi6 mi6 mi6 mi6 mi6 mi6 mi6 mi6 mi6 mi6 mi6 mi6 mi6 mi6 mi6 mi6 mi6 mi6 mi6 mi6 mi6 mi6 mi6 mi6 mi6 mi6 mi6 mi6 mi6 mi6 mi6 mi6 mi6 mi6 mi6 mi6 mi6 mi5 mi4 mi4 mi5 mi6 mi6 mi6 mi
Precipitation 0%0%0%0%0%0%0%0%0%0%0%0%0%0%0%0%0%0%0%1%1%26%14%41%52%56%67%67%67%64%63%60%55%52%45%61%77%80%84%73%100%100%100%100%100%100%100%68%
Humidity 92%93%94%95%96%96%96%96%96%95%95%95%87%79%72%69%67%66%66%70%75%80%83%87%89%90%92%94%96%96%96%95%95%96%96%96%95%92%89%84%86%90%93%93%96%97%97%97%
Dew Point 64°F64°F63°F61°F60°F58°F58°F57°F57°F56°F56°F55°F56°F57°F57°F58°F59°F59°F60°F61°F61°F61°F61°F61°F61°F61°F61°F61°F61°F60°F60°F61°F61°F61°F61°F60°F61°F61°F61°F62°F62°F62°F61°F60°F60°F59°F59°F59°F
Pressure 30.12"30.12"30.12"30.15"30.15"30.12"30.12"30.12"30.12"30.12"30.15"30.15"30.15"30.18"30.18"30.15"30.12"30.09"30.09"30.06"30.06"30.06"30.09"30.09"30.09"30.09"30.09"30.09"30.09"30.06"30.06"30.06"30.06"30.06"30.06"30.09"30.09"30.06"30.06"30.06"30.03"30"30"30"30"30"30"30.03"
Wind Speed 3.7 mph3.7 mph3.6 mph3.2 mph3.3 mph3.4 mph3.5 mph3.5 mph3.9 mph3.6 mph3 mph3 mph2.1 mph2 mph3 mph2.5 mph2.4 mph2.4 mph2.7 mph2.5 mph2.4 mph2.2 mph3 mph2.1 mph2.4 mph2.8 mph2.6 mph2.8 mph2.8 mph2.4 mph1.7 mph1.8 mph1.7 mph1.9 mph1.7 mph1.9 mph1.5 mph2.4 mph4.3 mph5.9 mph6.7 mph7 mph8 mph8.8 mph5.4 mph3.2 mph1.2 mph0.8 mph
Wind
Direction
343°
NNW
351°
N
358°
N

N
11°
N
16°
NNE
35°
NE
43°
NE
64°
ENE
60°
ENE
71°
ENE
75°
ENE
87°
E
114°
ESE
150°
SSE
194°
SSW
204°
SSW
200°
SSW
203°
SSW
181°
S
182°
S
160°
SSE
145°
SE
177°
S
166°
SSE
194°
SSW
201°
SSW
196°
SSW
198°
SSW
217°
SW
210°
SSW
216°
SW
219°
SW
207°
SSW
224°
SW
262°
W
219°
SW
182°
S
201°
SSW
224°
SW
226°
SW
229°
SW
225°
SW
226°
SW
217°
SW
223°
SW
184°
S
315°
NW

Daily Forecast

Date High Low Precip. Humidity
Today
Dec 9

Rain
74 °F
62 °F
71%
84%
Saturday
Dec 10

Rain
68 °F
56 °F
92%
69%
Sunday
Dec 11

Rain
64 °F
58 °F
100%
94%
Monday
Dec 12

Clear
67 °F
53 °F
0%
67%
Tuesday
Dec 13

Rain
63 °F
57 °F
20%
86%
Wednesday
Dec 14

Rain
66 °F
54 °F
100%
56%
Thursday
Dec 15

Clouds
62 °F
49 °F
0%
49%
Friday
Dec 16

Clouds
54 °F
41 °F
0%
41%
Saturday
Dec 17

Clouds
42 °F
33 °F
0%
58%
Sunday
Dec 18

Clouds
49 °F
30 °F
0%
37%
Monday
Dec 19

Clouds
56 °F
40 °F
6%
35%
Tuesday
Dec 20

Rain
53 °F
50 °F
98%
93%
Wednesday
Dec 21

Rain
50 °F
41 °F
35%
72%
Thursday
Dec 22

Clouds
57 °F
40 °F
2%
62%
Friday
Dec 23

Rain
69 °F
58 °F
94%
90%
Saturday
Dec 24

Clouds
53 °F
41 °F
49%
31%

Temperature 8-14 Day Outlook



Precipitation 8-14 Day Outlook




Quick Links
Lake Tuscaloosa News
Lake Tuscaloosa Photos
Lake Tuscaloosa Videos




About Us
Contact Us
Site Map
Search Site
Advertise With Us
   
www.LakeTuscaloosa.info
THE LAKE TUSCALOOSA WEBSITE

Copyright 2022, Lakes Online
Privacy    |    Legal